Time,TemperatureF,DewpointF,PressureIn,WindDirection,WindDirectionDegrees,WindSpeedMPH,WindSpeedGustMPH,Humidity,HourlyPrecipIn,Conditions,Clouds,dailyrainin,SolarRadiationWatts/m^2,SoftwareType,DateUTC
2013-05-22 00:21:00,38.0,37.0,-100.00,SE,137,0.0,4.0,97,0.00,,,0.01,0.000000,,2013-05-22 07:21:00,
2013-05-22 00:31:00,38.0,37.0,-100.00,SE,137,0.0,4.0,97,0.00,,,0.01,0.000000,,2013-05-22 07:31:00,
2013-05-22 00:41:00,38.0,37.0,-100.00,SE,137,0.0,4.0,97,0.00,,,0.01,0.000000,,2013-05-22 07:41:00,
2013-05-22 00:52:00,38.0,37.0,-100.00,SE,137,0.0,4.0,97,0.00,,,0.01,0.000000,,2013-05-22 07:52:00,
2013-05-22 01:22:00,37.0,36.0,-100.00,SW,229,0.0,4.0,97,0.00,,,0.01,0.000000,,2013-05-22 08:22:00,
2013-05-22 01:31:00,37.0,36.0,-100.00,SW,229,0.0,4.0,97,0.00,,,0.01,0.000000,,2013-05-22 08:31:00,
2013-05-22 01:41:00,37.0,36.0,-100.00,SW,229,0.0,4.0,97,0.00,,,0.01,0.000000,,2013-05-22 08:41:00,
2013-05-22 01:51:00,37.0,36.0,-100.00,SW,229,0.0,4.0,97,0.00,,,0.01,0.000000,,2013-05-22 08:51:00,
2013-05-22 02:21:00,38.0,37.0,-100.00,SSW,206,1.0,3.0,96,0.00,,,0.01,0.000000,,2013-05-22 09:21:00,
2013-05-22 02:32:00,38.0,37.0,-100.00,SSW,206,1.0,3.0,96,0.00,,,0.01,0.000000,,2013-05-22 09:32:00,
2013-05-22 02:42:00,38.0,37.0,-100.00,SSW,206,1.0,3.0,96,0.00,,,0.01,0.000000,,2013-05-22 09:42:00,
2013-05-22 02:53:00,38.0,37.0,-100.00,SSW,206,1.0,3.0,96,0.00,,,0.01,0.000000,,2013-05-22 09:53:00,
2013-05-22 03:22:00,35.0,34.0,-100.00,SSE,161,0.0,2.0,97,0.00,,,0.01,0.000000,,2013-05-22 10:22:00,
2013-05-22 03:33:00,35.0,34.0,-100.00,SSE,161,0.0,2.0,97,0.00,,,0.01,0.000000,,2013-05-22 10:33:00,
2013-05-22 03:42:00,35.0,34.0,-100.00,SSE,161,0.0,2.0,97,0.00,,,0.01,0.000000,,2013-05-22 10:42:00,
2013-05-22 03:52:00,35.0,34.0,-100.00,SSE,161,0.0,2.0,97,0.00,,,0.01,0.000000,,2013-05-22 10:52:00,
2013-05-22 04:21:00,35.0,34.0,-100.00,SSE,160,1.0,3.0,98,0.00,,,0.01,0.000000,,2013-05-22 11:21:00,
2013-05-22 04:32:00,35.0,34.0,-100.00,SSE,160,1.0,3.0,98,0.00,,,0.01,0.000000,,2013-05-22 11:32:00,
2013-05-22 04:41:00,35.0,34.0,-100.00,SSE,160,1.0,3.0,98,0.00,,,0.01,0.000000,,2013-05-22 11:41:00,
2013-05-22 04:52:00,35.0,34.0,-100.00,SSE,160,1.0,3.0,98,0.00,,,0.01,0.000000,,2013-05-22 11:52:00,
2013-05-22 05:22:00,36.0,36.0,-100.00,SW,230,0.0,2.0,99,0.01,,,0.02,0.000000,,2013-05-22 12:22:00,
2013-05-22 05:32:00,36.0,36.0,-100.00,SW,230,0.0,2.0,99,0.01,,,0.02,0.000000,,2013-05-22 12:32:00,
2013-05-22 05:42:00,36.0,36.0,-100.00,SW,230,0.0,2.0,99,0.01,,,0.02,0.000000,,2013-05-22 12:42:00,
2013-05-22 05:52:00,36.0,36.0,-100.00,SW,230,0.0,2.0,99,0.01,,,0.02,0.000000,,2013-05-22 12:52:00,
2013-05-22 06:22:00,36.0,35.0,-100.00,SSW,212,1.0,3.0,98,0.00,,,0.02,0.000000,,2013-05-22 13:22:00,
2013-05-22 06:31:00,36.0,35.0,-100.00,SSW,212,1.0,3.0,98,0.00,,,0.02,0.000000,,2013-05-22 13:31:00,
2013-05-22 06:41:00,36.0,35.0,-100.00,SSW,212,1.0,3.0,98,0.00,,,0.02,0.000000,,2013-05-22 13:41:00,
2013-05-22 06:52:00,36.0,35.0,-100.00,SSW,212,1.0,3.0,98,0.00,,,0.02,0.000000,,2013-05-22 13:52:00,
2013-05-22 07:21:00,37.0,35.0,-100.00,WSW,241,1.0,2.0,93,0.00,,,0.02,31.000000,,2013-05-22 14:21:00,
2013-05-22 07:32:00,37.0,35.0,-100.00,WSW,241,1.0,2.0,93,0.00,,,0.02,31.000000,,2013-05-22 14:32:00,
2013-05-22 07:41:00,37.0,35.0,-100.00,WSW,241,1.0,2.0,93,0.00,,,0.02,31.000000,,2013-05-22 14:41:00,
2013-05-22 07:52:00,37.0,35.0,-100.00,WSW,241,1.0,2.0,93,0.00,,,0.02,31.000000,,2013-05-22 14:52:00,
2013-05-22 08:21:00,42.0,37.0,-100.00,East,82,1.0,4.0,82,0.00,,,-99.99,98.000000,,2013-05-22 15:21:00,
2013-05-22 08:32:00,42.0,37.0,-100.00,East,82,1.0,4.0,82,0.00,,,-99.99,98.000000,,2013-05-22 15:32:00,
2013-05-22 08:42:00,42.0,37.0,-100.00,East,82,1.0,4.0,82,0.00,,,-99.99,98.000000,,2013-05-22 15:42:00,
2013-05-22 08:53:00,42.0,37.0,-100.00,East,82,1.0,4.0,82,0.00,,,-99.99,98.000000,,2013-05-22 15:53:00,
2013-05-22 09:23:00,50.0,38.0,-100.00,NNE,31,2.0,6.0,62,0.00,,,0.02,516.000000,,2013-05-22 16:23:00,
2013-05-22 09:32:00,50.0,38.0,-100.00,NNE,31,2.0,6.0,62,0.00,,,0.02,516.000000,,2013-05-22 16:32:00,
2013-05-22 09:42:00,50.0,38.0,-100.00,NNE,31,2.0,6.0,62,0.00,,,0.02,516.000000,,2013-05-22 16:42:00,
2013-05-22 09:52:00,50.0,38.0,-100.00,NNE,31,2.0,6.0,62,0.00,,,0.02,516.000000,,2013-05-22 16:52:00,
2013-05-22 10:22:00,52.0,35.0,-100.00,North,8,3.0,7.0,52,0.00,,,0.02,688.000000,,2013-05-22 17:22:00,
2013-05-22 10:32:00,52.0,35.0,-100.00,North,8,3.0,7.0,52,0.00,,,0.02,688.000000,,2013-05-22 17:32:00,
2013-05-22 10:42:00,52.0,35.0,-100.00,North,8,3.0,7.0,52,0.00,,,0.02,688.000000,,2013-05-22 17:42:00,
2013-05-22 10:53:00,52.0,35.0,-100.00,North,8,3.0,7.0,52,0.00,,,0.02,688.000000,,2013-05-22 17:53:00,
2013-05-22 11:22:00,53.0,33.0,-100.00,NW,321,4.0,10.0,47,0.00,,,0.02,811.000000,,2013-05-22 18:22:00,
2013-05-22 11:33:00,53.0,33.0,-100.00,NW,321,4.0,10.0,47,0.00,,,0.02,811.000000,,2013-05-22 18:33:00,
2013-05-22 11:42:00,53.0,33.0,-100.00,NW,321,4.0,10.0,47,0.00,,,0.02,811.000000,,2013-05-22 18:42:00,
2013-05-22 11:52:00,53.0,33.0,-100.00,NW,321,4.0,10.0,47,0.00,,,0.02,811.000000,,2013-05-22 18:52:00,
2013-05-22 12:21:00,58.0,34.0,-100.00,North,4,4.0,9.0,41,0.00,,,0.02,653.000000,,2013-05-22 19:21:00,
2013-05-22 12:32:00,58.0,34.0,-100.00,North,4,4.0,9.0,41,0.00,,,0.02,653.000000,,2013-05-22 19:32:00,
2013-05-22 12:41:00,58.0,34.0,-100.00,North,4,4.0,9.0,41,0.00,,,0.02,653.000000,,2013-05-22 19:41:00,
2013-05-22 12:52:00,58.0,34.0,-100.00,North,4,4.0,9.0,41,0.00,,,0.02,653.000000,,2013-05-22 19:52:00,
2013-05-22 13:21:00,53.0,33.0,-100.00,WNW,286,3.0,8.0,46,0.00,,,0.02,467.000000,,2013-05-22 20:21:00,
2013-05-22 13:32:00,53.0,33.0,-100.00,WNW,286,3.0,8.0,46,0.00,,,0.02,467.000000,,2013-05-22 20:32:00,
2013-05-22 13:41:00,53.0,33.0,-100.00,WNW,286,3.0,8.0,46,0.00,,,0.02,467.000000,,2013-05-22 20:41:00,
2013-05-22 13:51:00,53.0,33.0,-100.00,WNW,286,3.0,8.0,46,0.00,,,0.02,467.000000,,2013-05-22 20:51:00,
2013-05-22 14:21:00,51.0,39.0,-100.00,East,82,3.0,9.0,63,0.00,,,0.02,221.000000,,2013-05-22 21:21:00,
2013-05-22 14:32:00,51.0,39.0,-100.00,East,82,3.0,9.0,63,0.00,,,0.02,221.000000,,2013-05-22 21:32:00,
2013-05-22 14:42:00,51.0,39.0,-100.00,East,82,3.0,9.0,63,0.00,,,0.02,221.000000,,2013-05-22 21:42:00,
2013-05-22 14:52:00,51.0,39.0,-100.00,East,82,3.0,9.0,63,0.00,,,0.02,221.000000,,2013-05-22 21:52:00,
2013-05-22 16:21:00,55.0,37.0,-100.00,South,176,5.0,11.0,51,-99.99,,,0.03,346.000000,,2013-05-22 23:21:00,
2013-05-22 16:32:00,55.0,37.0,-100.00,South,176,5.0,11.0,51,-99.99,,,0.03,346.000000,,2013-05-22 23:32:00,
2013-05-22 16:42:00,55.0,37.0,-100.00,South,176,5.0,11.0,51,-99.99,,,0.03,346.000000,,2013-05-22 23:42:00,
2013-05-22 16:52:00,55.0,37.0,-100.00,South,176,5.0,11.0,51,-99.99,,,0.03,346.000000,,2013-05-22 23:52:00,
2013-05-22 17:22:00,57.0,38.0,-100.00,NW,307,3.0,8.0,48,0.00,,,0.03,345.000000,,2013-05-23 00:22:00,
2013-05-22 17:31:00,57.0,38.0,-100.00,NW,307,3.0,8.0,48,0.00,,,0.03,345.000000,,2013-05-23 00:31:00,
2013-05-22 17:42:00,57.0,38.0,-100.00,NW,307,3.0,8.0,48,0.00,,,0.03,345.000000,,2013-05-23 00:42:00,
2013-05-22 17:51:00,57.0,38.0,-100.00,NW,307,3.0,8.0,48,0.00,,,0.03,345.000000,,2013-05-23 00:51:00,
2013-05-22 18:21:00,55.0,36.0,-100.00,West,262,6.0,15.0,49,0.00,,,0.03,359.000000,,2013-05-23 01:21:00,
2013-05-22 18:32:00,55.0,36.0,-100.00,West,262,6.0,15.0,49,0.00,,,0.03,359.000000,,2013-05-23 01:32:00,
2013-05-22 18:42:00,55.0,36.0,-100.00,West,262,6.0,15.0,49,0.00,,,0.03,359.000000,,2013-05-23 01:42:00,
2013-05-22 18:52:00,55.0,36.0,-100.00,West,262,6.0,15.0,49,0.00,,,0.03,359.000000,,2013-05-23 01:52:00,
2013-05-22 19:21:00,51.0,39.0,-100.00,NE,55,3.0,19.0,63,0.01,,,0.03,175.000000,,2013-05-23 02:21:00,
2013-05-22 19:31:00,51.0,39.0,-100.00,NE,55,3.0,19.0,63,0.01,,,0.03,175.000000,,2013-05-23 02:31:00,
2013-05-22 19:42:00,51.0,39.0,-100.00,NE,55,3.0,19.0,63,0.01,,,0.03,175.000000,,2013-05-23 02:42:00,
2013-05-22 19:51:00,51.0,39.0,-100.00,NE,55,3.0,19.0,63,0.01,,,0.03,175.000000,,2013-05-23 02:51:00,
2013-05-22 20:21:00,51.0,37.0,-100.00,WNW,303,4.0,12.0,58,0.00,,,0.03,83.000000,,2013-05-23 03:21:00,
2013-05-22 20:33:00,51.0,37.0,-100.00,WNW,303,4.0,12.0,58,0.00,,,0.03,83.000000,,2013-05-23 03:33:00,
2013-05-22 20:43:00,51.0,37.0,-100.00,WNW,303,4.0,12.0,58,0.00,,,0.03,83.000000,,2013-05-23 03:43:00,
2013-05-22 20:53:00,51.0,37.0,-100.00,WNW,303,4.0,12.0,58,0.00,,,0.03,83.000000,,2013-05-23 03:53:00,
2013-05-22 21:22:00,48.0,39.0,-100.00,North,359,4.0,13.0,72,0.00,,,0.03,6.000000,,2013-05-23 04:22:00,
2013-05-22 21:33:00,48.0,39.0,-100.00,North,359,4.0,13.0,72,0.00,,,0.03,6.000000,,2013-05-23 04:33:00,
2013-05-22 21:42:00,48.0,39.0,-100.00,North,359,4.0,13.0,72,0.00,,,0.03,6.000000,,2013-05-23 04:42:00,
2013-05-22 21:52:00,48.0,39.0,-100.00,North,359,4.0,13.0,72,0.00,,,0.03,6.000000,,2013-05-23 04:52:00,
2013-05-22 22:22:00,46.0,41.0,-100.00,NNW,348,2.0,6.0,81,0.01,,,0.04,0.000000,,2013-05-23 05:22:00,
2013-05-22 22:32:00,46.0,41.0,-100.00,NNW,348,2.0,6.0,81,0.01,,,0.04,0.000000,,2013-05-23 05:32:00,
2013-05-22 22:42:00,46.0,41.0,-100.00,NNW,348,2.0,6.0,81,0.01,,,0.04,0.000000,,2013-05-23 05:42:00,
2013-05-22 22:52:00,46.0,41.0,-100.00,NNW,348,2.0,6.0,81,0.01,,,0.04,0.000000,,2013-05-23 05:52:00,
2013-05-22 23:21:00,45.0,40.0,-100.00,NNW,346,1.0,6.0,84,0.01,,,0.05,0.000000,,2013-05-23 06:21:00,
2013-05-22 23:31:00,45.0,40.0,-100.00,NNW,346,1.0,6.0,84,0.01,,,0.05,0.000000,,2013-05-23 06:31:00,
2013-05-22 23:41:00,45.0,40.0,-100.00,NNW,346,1.0,6.0,84,0.01,,,0.05,0.000000,,2013-05-23 06:41:00,
2013-05-22 23:52:00,45.0,40.0,-100.00,NNW,346,1.0,6.0,84,0.01,,,0.05,0.000000,,2013-05-23 06:52:00,
2013-05-22 23:59:00,43.0,42.0,-100.00,North,349,0.0,3.0,98,0.00,,,0.05,0.000000,,2013-05-23 06:59:00,